GFSFLT1_925_thetae_216.txt.gz
Theta_e
338 343 345 346 342 337 336 337 338 340 336 332 328 329 335 335 334 336 334 332 334 334 336 334 335 334 334 333 333 333 332 331 330
345 341 342 345 345 338 334 333 337 337 339 334 329 327 333 335 335 336 335 332 334 334 334 334 333 333 333 331 332 330 329 330 329
344 343 342 343 345 340 338 334 335 336 338 339 332 328 331 335 335 335 335 331 333 334 332 335 332 332 331 331 330 331 329 331 330
343 344 346 344 342 343 342 339 335 335 338 341 334 331 329 334 334 336 334 331 333 333 332 332 333 333 331 331 330 330 330 328 330
341 341 342 341 344 343 342 343 339 337 336 340 335 333 330 332 334 335 333 329 333 332 332 332 332 333 331 329 329 329 329 327 329
343 342 341 339 340 341 340 342 342 339 336 337 335 333 332 331 334 335 333 330 333 332 331 331 331 332 330 331 330 329 328 326 328
344 344 343 343 341 339 340 340 340 341 340 337 333 331 331 333 335 335 334 330 333 331 331 330 330 331 330 330 329 328 328 326 327
342 342 343 342 342 341 338 340 340 340 339 339 339 337 335 335 335 335 335 330 332 331 330 329 330 330 330 330 328 328 327 325 327
341 342 343 342 342 341 340 340 340 340 339 338 339 338 337 335 336 334 334 331 332 332 330 330 328 329 329 329 328 327 326 326 327
341 342 343 342 342 339 331 338 340 341 340 340 339 337 337 336 335 334 334 333 331 333 332 331 330 328 328 328 328 326 325 325 326
334 338 341 341 341 339 339 340 339 339 338 336 337 336 336 335 335 334 334 333 329 333 333 332 330 329 327 326 327 326 325 325 325
329 330 331 335 341 340 339 338 338 338 338 337 336 336 335 335 335 334 334 331 329 328 333 331 331 329 328 326 326 325 325 325 325
322 326 328 329 331 337 340 339 338 337 336 337 337 335 335 335 335 335 335 333 328 327 330 331 331 329 328 326 325 326 325 325 325
315 319 325 327 329 331 333 335 337 338 337 336 336 335 336 336 335 335 335 334 330 327 328 329 328 328 328 327 326 325 325 324 324
315 315 317 322 324 327 332 332 333 335 336 336 335 335 336 336 334 335 334 334 331 330 328 328 328 326 326 325 326 325 323 325 324
314 315 316 318 323 325 327 331 334 335 335 335 335 334 334 334 334 334 334 333 331 330 329 327 327 326 325 325 324 324 325 325 325
309 311 314 317 320 320 325 325 330 333 334 334 331 330 329 331 333 333 333 332 331 328 327 328 327 326 324 324 323 322 322 324 324
307 308 309 315 316 321 321 326 327 331 333 334 332 330 332 325 323 325 332 331 329 327 327 327 326 326 325 323 323 321 320 321 323
306 308 309 310 313 318 320 321 325 326 329 331 333 331 329 328 323 316 319 326 327 326 326 326 325 325 324 323 322 321 320 321 321
303 305 306 308 312 316 319 321 322 325 326 329 330 331 330 325 322 320 314 314 316 320 323 323 323 322 322 321 320 320 320 319 320

GFSFLT1_925_thetae_219.txt.gz
Theta_e
339 341 343 344 343 337 334 333 335 337 334 330 327 334 335 334 335 335 334 332 335 336 334 336 334 334 332 332 330 330 332 330 330
346 342 340 343 344 341 336 333 335 336 336 333 328 331 334 334 336 335 333 331 335 334 335 333 333 332 332 330 332 330 331 331 330
346 343 343 341 343 344 339 337 338 339 339 338 331 328 330 334 334 335 333 329 334 333 335 333 334 331 331 331 331 330 328 330 329
342 344 343 344 342 343 343 340 339 339 339 340 336 330 329 333 334 335 333 330 334 333 333 333 334 332 331 331 330 330 328 329 328
341 341 339 345 344 343 342 342 341 340 337 339 339 332 330 332 332 335 332 330 333 332 332 333 334 332 330 331 329 328 328 328 329
340 337 337 340 339 339 341 340 341 341 339 335 337 333 331 329 330 335 332 331 331 332 332 332 332 331 331 329 329 328 327 328 328
344 343 343 342 341 340 338 339 339 340 340 338 335 334 330 330 332 335 333 332 331 330 330 331 331 331 330 330 328 328 326 327 327
341 342 341 341 340 341 339 339 338 339 339 339 338 336 335 332 332 335 334 332 332 331 329 330 330 330 330 330 328 327 326 328 328
334 337 339 340 339 340 339 340 338 336 338 339 338 336 337 336 334 335 334 333 333 333 331 330 330 329 330 329 328 327 326 327 328
330 330 331 335 338 338 339 338 333 338 340 339 338 337 337 337 336 335 334 334 333 333 332 331 330 328 329 328 328 326 326 326 326
324 324 325 327 330 334 338 337 335 331 336 337 337 337 338 337 336 335 334 333 333 334 333 332 331 329 328 327 327 326 325 326 325
314 315 318 324 326 329 333 337 337 336 337 337 337 337 337 337 336 336 334 334 333 331 334 333 332 330 328 326 327 326 325 325 325
314 315 314 317 321 324 328 331 334 335 334 336 336 335 335 336 335 335 334 334 332 330 332 333 332 331 329 327 326 326 325 325 325
311 313 315 315 316 318 323 326 331 333 333 335 335 336 335 335 335 334 334 333 331 329 330 331 332 331 330 328 326 326 326 325 324
306 307 310 312 314 316 320 322 325 329 333 332 334 335 335 335 335 335 334 334 333 329 328 330 330 329 329 329 328 326 324 324 325
303 304 306 308 310 314 317 320 321 325 326 333 335 333 333 334 334 334 334 334 332 329 328 329 329 327 327 327 328 327 325 324 323
303 304 305 307 308 311 313 316 322 324 327 330 331 331 329 329 332 333 334 334 332 330 329 328 328 326 326 325 325 325 325 325 324
303 303 303 304 306 306 308 313 320 322 324 327 328 330 331 325 322 328 329 332 332 331 330 328 327 326 325 324 323 322 321 323 323
303 303 302 303 305 307 309 315 317 320 323 324 327 328 327 325 324 319 320 329 329 329 328 328 327 326 325 324 323 322 320 321 322
303 303 302 303 303 305 310 310 310 313 320 323 325 327 327 324 322 321 316 316 321 323 326 326 326 325 324 324 322 320 320 320 321

GFSFLT1_925_thetae_222.txt.gz
Theta_e
340 338 342 344 343 340 340 338 338 338 334 329 327 334 335 335 334 333 330 334 337 334 336 335 334 333 332 331 331 332 332 331 330
345 344 340 342 342 344 341 340 339 340 337 333 327 332 333 334 335 334 331 333 335 334 335 333 333 331 330 331 330 329 330 329 330
347 343 344 342 342 342 344 340 340 339 337 334 331 328 332 333 335 333 331 330 334 334 334 334 332 332 330 329 330 329 330 329 329
341 342 344 342 342 343 343 342 340 339 338 337 334 330 328 331 333 334 332 329 333 333 333 334 333 331 330 330 329 329 330 328 328
340 338 338 339 341 344 343 343 340 341 339 337 335 333 330 330 332 335 332 331 334 333 333 333 333 331 331 330 329 328 328 328 329
342 343 341 339 337 338 341 341 342 341 340 337 333 336 331 331 330 334 333 332 336 333 331 333 333 331 331 329 328 327 328 327 330
332 336 339 341 340 339 339 338 338 341 341 340 336 337 333 330 332 331 334 333 336 334 332 332 332 332 331 329 328 327 327 328 329
331 329 331 335 338 339 339 339 339 338 339 340 340 336 334 331 330 332 334 333 337 335 333 332 331 331 331 329 328 327 327 328 330
316 319 323 326 330 335 337 338 338 339 338 338 339 339 337 334 333 332 334 334 337 336 333 332 331 331 330 330 328 327 326 327 329
313 314 315 320 325 327 331 335 337 338 338 338 335 337 338 336 335 335 332 335 333 336 334 332 332 330 330 330 328 327 326 326 327
311 313 315 314 317 323 326 330 333 335 336 335 338 337 336 337 334 335 335 335 333 335 336 334 332 331 330 328 328 327 326 326 326
309 311 313 314 314 315 319 323 327 331 335 335 331 335 336 336 336 336 335 335 333 333 335 335 333 331 330 328 328 327 326 326 326
303 304 305 309 311 313 315 320 323 326 331 332 335 335 335 336 335 335 336 335 334 333 334 334 334 332 330 329 328 327 326 326 325
302 302 303 304 306 308 311 315 317 321 325 329 331 332 334 334 335 335 335 335 334 333 333 333 333 333 331 329 328 327 326 325 325
301 302 303 302 302 306 307 311 313 317 322 324 326 331 332 334 334 334 334 334 334 333 332 333 332 332 332 330 329 327 327 326 325
302 302 303 302 302 303 306 308 313 316 319 325 327 330 332 333 334 334 334 333 332 333 331 331 331 331 330 330 330 328 327 326 324
302 303 303 302 302 302 304 306 309 314 318 323 326 328 327 328 330 333 334 333 332 331 330 331 330 330 329 328 328 328 327 326 325
302 302 303 302 302 302 302 303 311 315 317 320 323 327 327 324 323 326 329 331 330 330 330 329 330 330 328 327 327 326 325 325 324
302 302 303 302 302 302 301 303 309 308 311 315 320 323 325 325 325 319 323 328 330 330 330 328 329 328 327 326 324 323 322 322 322
302 303 303 302 302 301 301 300 303 305 308 310 314 321 323 325 322 322 318 321 324 326 328 328 328 327 326 324 322 322 320 320 321

GFSFLT1_925_thetae_225.txt.gz
Theta_e
344 342 341 345 343 342 343 341 339 339 333 328 328 333 335 334 334 334 331 333 335 336 333 333 332 332 330 331 331 330 331 329 329
345 345 343 337 343 342 342 342 341 341 337 332 327 332 334 334 334 333 331 334 335 336 334 334 332 331 330 330 330 331 329 329 329
343 344 341 341 339 337 342 343 342 341 341 339 332 330 332 333 334 333 331 332 335 335 334 333 332 331 330 331 329 330 329 329 328
340 340 340 343 340 340 341 342 343 342 342 340 339 333 332 331 334 334 332 332 336 336 335 335 332 331 331 330 329 328 329 328 329
333 337 340 339 342 341 338 343 343 343 341 340 337 332 332 331 330 333 334 331 336 335 335 334 333 331 331 329 328 328 328 328 331
332 330 332 335 338 340 340 337 338 340 340 340 338 332 332 335 331 332 334 332 337 336 334 334 334 332 332 330 329 328 328 328 329
322 323 324 325 330 334 338 338 338 338 338 338 338 337 332 334 333 330 332 333 337 337 335 334 334 332 332 330 329 327 328 328 328
314 315 318 319 323 326 330 334 336 338 339 338 337 337 336 334 334 333 331 334 337 338 336 334 334 333 332 330 328 328 328 329 328
309 311 314 315 315 320 325 327 331 333 337 339 338 337 337 336 334 332 332 331 334 338 337 335 333 333 332 331 329 328 328 328 328
307 308 310 312 313 314 317 321 324 328 332 336 338 337 336 336 336 335 333 332 332 336 338 336 334 333 332 331 329 328 327 327 328
301 302 304 306 308 310 312 314 317 323 326 333 334 336 335 334 333 335 335 334 331 335 339 337 335 333 332 331 330 328 327 327 327
300 300 300 302 303 305 309 311 313 317 322 326 330 333 335 333 335 335 335 335 335 333 336 338 336 334 332 331 330 328 327 327 326
300 300 301 302 301 301 303 306 309 312 315 320 324 328 331 334 335 335 335 335 335 335 335 335 337 335 333 332 330 329 327 327 326
302 301 301 302 302 301 300 303 308 310 312 315 321 324 326 330 332 334 334 335 334 334 335 334 335 334 334 332 330 329 328 327 327
302 302 301 302 302 301 301 302 304 306 311 315 319 321 323 325 331 333 334 334 334 334 335 334 333 334 334 333 331 329 328 327 327
302 302 302 302 302 302 301 302 301 304 308 315 319 323 326 328 331 334 333 333 333 333 334 334 333 333 333 333 332 331 329 328 327
303 302 302 302 302 302 301 301 302 303 310 315 317 320 324 327 327 329 330 332 332 332 333 334 333 333 333 332 331 330 330 329 327
301 301 301 302 302 302 302 301 301 305 307 307 314 321 325 324 324 327 329 330 330 331 332 332 332 332 332 331 330 329 328 328 327
298 298 299 301 302 302 302 301 301 301 304 305 308 312 315 324 325 321 323 327 330 330 330 330 331 331 331 331 329 328 328 326 326
297 298 300 301 302 302 302 301 301 300 302 304 306 308 312 315 323 324 319 320 321 325 328 329 329 329 330 329 329 328 326 323 323